Time,TemperatureF,DewpointF,PressureIn,WindDirection,WindDirectionDegrees,WindSpeedMPH,WindSpeedGustMPH,Humidity,HourlyPrecipIn,Conditions,Clouds,dailyrainin,SolarRadiationWatts/m^2,SoftwareType,DateUTC
2017-11-18 00:14:00,70.1,56.0,30.03,ENE,60,0.0,1.0,62,0.00,,,0.00,0,weatherlink.com 1.10,2017-11-18 05:14:00,
2017-11-18 00:29:00,70.1,56.0,30.02,ENE,60,0.0,1.0,61,0.00,,,0.00,0,weatherlink.com 1.10,2017-11-18 05:29:00,
2017-11-18 00:44:00,69.9,56.0,30.02,NE,41,0.0,0.0,61,0.00,,,0.00,0,weatherlink.com 1.10,2017-11-18 05:44:00,
2017-11-18 00:59:00,68.8,57.0,30.02,NE,41,0.0,0.0,66,0.00,,,0.00,0,weatherlink.com 1.10,2017-11-18 05:59:00,
2017-11-18 01:14:00,68.4,56.0,30.01,NE,41,0.0,0.0,64,0.00,,,0.00,0,weatherlink.com 1.10,2017-11-18 06:14:00,
2017-11-18 01:29:00,68.9,55.0,30.00,NE,38,0.0,0.0,62,0.00,,,0.00,0,weatherlink.com 1.10,2017-11-18 06:29:00,
2017-11-18 01:44:00,68.4,56.0,30.00,NE,38,0.0,0.0,64,0.00,,,0.00,0,weatherlink.com 1.10,2017-11-18 06:44:00,
2017-11-18 01:59:00,67.3,56.0,29.99,NE,38,0.0,0.0,68,0.00,,,0.00,0,weatherlink.com 1.10,2017-11-18 06:59:00,
2017-11-18 02:14:00,66.3,57.0,29.99,NNW,343,0.0,1.0,71,0.00,,,0.00,0,weatherlink.com 1.10,2017-11-18 07:14:00,
2017-11-18 02:30:00,66.6,57.0,29.98,NW,318,0.0,0.0,71,0.00,,,0.00,0,weatherlink.com 1.10,2017-11-18 07:30:00,
2017-11-18 02:44:00,66.4,58.0,29.98,NW,318,0.0,0.0,73,0.00,,,0.00,0,weatherlink.com 1.10,2017-11-18 07:44:00,
2017-11-18 02:59:00,66.0,58.0,29.98,NW,318,0.0,0.0,76,0.00,,,0.00,0,weatherlink.com 1.10,2017-11-18 07:59:00,
2017-11-18 03:15:00,65.5,59.0,29.98,NW,318,0.0,0.0,79,0.00,,,0.00,0,weatherlink.com 1.10,2017-11-18 08:15:00,
2017-11-18 03:30:00,65.0,59.0,29.97,NW,318,0.0,0.0,81,0.00,,,0.00,0,weatherlink.com 1.10,2017-11-18 08:30:00,
2017-11-18 03:45:00,65.2,60.0,29.97,NW,318,0.0,0.0,83,0.00,,,0.00,0,weatherlink.com 1.10,2017-11-18 08:45:00,
2017-11-18 04:00:00,64.8,60.0,29.96,NW,318,0.0,0.0,84,0.00,,,0.00,0,weatherlink.com 1.10,2017-11-18 09:00:00,
2017-11-18 04:15:00,64.3,60.0,29.96,NW,318,0.0,0.0,85,0.00,,,0.00,0,weatherlink.com 1.10,2017-11-18 09:15:00,
2017-11-18 04:30:00,63.9,59.0,29.95,NW,318,0.0,0.0,85,0.00,,,0.00,0,weatherlink.com 1.10,2017-11-18 09:30:00,
2017-11-18 04:45:00,63.9,60.0,29.95,East,82,0.0,2.0,86,0.00,,,0.00,0,weatherlink.com 1.10,2017-11-18 09:45:00,
2017-11-18 05:00:00,67.9,56.0,29.95,East,90,0.0,3.0,66,0.00,,,0.00,0,weatherlink.com 1.10,2017-11-18 10:00:00,
2017-11-18 05:15:00,69.4,56.0,29.96,East,90,0.0,0.0,62,0.00,,,0.00,0,weatherlink.com 1.10,2017-11-18 10:15:00,
2017-11-18 05:30:00,68.1,55.0,29.96,East,90,0.0,0.0,64,0.00,,,0.00,0,weatherlink.com 1.10,2017-11-18 10:30:00,
2017-11-18 05:45:00,66.6,56.0,29.97,East,90,0.0,0.0,68,0.00,,,0.00,0,weatherlink.com 1.10,2017-11-18 10:45:00,
2017-11-18 06:00:00,65.0,56.0,29.97,East,90,0.0,0.0,73,0.00,,,0.00,0,weatherlink.com 1.10,2017-11-18 11:00:00,
2017-11-18 06:15:00,63.7,57.0,29.98,East,90,0.0,0.0,78,0.00,,,0.00,0,weatherlink.com 1.10,2017-11-18 11:15:00,
2017-11-18 06:30:00,64.0,59.0,29.99,East,90,0.0,0.0,84,0.00,,,0.00,0,weatherlink.com 1.10,2017-11-18 11:30:00,
2017-11-18 06:45:00,63.2,59.0,29.99,East,90,0.0,0.0,86,0.00,,,0.00,5,weatherlink.com 1.10,2017-11-18 11:45:00,
2017-11-18 07:00:00,62.6,59.0,30.00,East,90,0.0,0.0,87,0.00,,,0.00,12,weatherlink.com 1.10,2017-11-18 12:00:00,
2017-11-18 07:15:00,62.4,59.0,29.99,East,90,0.0,0.0,89,0.00,,,0.00,21,weatherlink.com 1.10,2017-11-18 12:15:00,
2017-11-18 07:30:00,62.7,60.0,30.00,East,90,0.0,0.0,90,0.00,,,0.00,35,weatherlink.com 1.10,2017-11-18 12:30:00,
2017-11-18 07:45:00,63.4,61.0,30.00,East,90,0.0,0.0,90,0.00,,,0.00,44,weatherlink.com 1.10,2017-11-18 12:45:00,
2017-11-18 08:00:00,64.3,62.0,30.01,East,90,0.0,1.0,91,0.00,,,0.00,220,weatherlink.com 1.10,2017-11-18 13:00:00,
2017-11-18 08:15:00,65.6,62.0,30.02,NNW,337,0.0,1.0,89,0.00,,,0.00,65,weatherlink.com 1.10,2017-11-18 13:15:00,
2017-11-18 08:30:00,66.4,63.0,30.02,NNW,337,0.0,0.0,88,0.00,,,0.00,111,weatherlink.com 1.10,2017-11-18 13:30:00,
2017-11-18 08:45:00,67.8,64.0,30.02,NNW,337,0.0,0.0,87,0.00,,,0.00,422,weatherlink.com 1.10,2017-11-18 13:45:00,
2017-11-18 09:00:00,70.6,64.0,30.02,NNW,337,0.0,1.0,80,0.00,,,0.00,385,weatherlink.com 1.10,2017-11-18 14:00:00,
2017-11-18 09:15:00,72.5,63.0,30.03,NNW,337,0.0,0.0,72,0.00,,,0.00,127,weatherlink.com 1.10,2017-11-18 14:15:00,
2017-11-18 09:30:00,74.9,63.0,30.03,NNW,337,0.0,1.0,66,0.00,,,0.00,555,weatherlink.com 1.10,2017-11-18 14:30:00,
2017-11-18 09:45:00,77.0,63.0,30.03,NNW,338,0.0,1.0,62,0.00,,,0.00,559,weatherlink.com 1.10,2017-11-18 14:45:00,
2017-11-18 10:00:00,77.7,60.0,30.02,East,94,0.0,6.0,54,0.00,,,0.00,601,weatherlink.com 1.10,2017-11-18 15:00:00,
2017-11-18 10:15:00,77.7,60.0,30.03,NE,53,2.0,4.0,55,0.00,,,0.00,642,weatherlink.com 1.10,2017-11-18 15:15:00,
2017-11-18 10:30:00,77.6,61.0,30.02,East,86,2.0,7.0,56,0.00,,,0.00,223,weatherlink.com 1.10,2017-11-18 15:30:00,
2017-11-18 10:45:00,77.6,60.0,30.02,East,88,0.0,6.0,55,0.00,,,0.00,211,weatherlink.com 1.10,2017-11-18 15:45:00,
2017-11-18 11:01:00,76.8,61.0,30.01,East,89,1.0,5.0,58,0.00,,,0.00,793,weatherlink.com 1.10,2017-11-18 16:01:00,
2017-11-18 11:15:00,77.4,61.0,30.00,East,80,2.0,7.0,57,0.00,,,0.00,752,weatherlink.com 1.10,2017-11-18 16:15:00,
2017-11-18 11:30:00,77.7,60.0,29.99,ESE,119,5.0,6.0,55,0.00,,,0.00,735,weatherlink.com 1.10,2017-11-18 16:30:00,
2017-11-18 11:45:00,77.9,61.0,29.99,ESE,105,6.0,6.0,57,0.00,,,0.00,765,weatherlink.com 1.10,2017-11-18 16:45:00,
2017-11-18 12:01:00,78.1,62.0,29.98,East,81,2.0,9.0,57,0.00,,,0.00,828,weatherlink.com 1.10,2017-11-18 17:01:00,
2017-11-18 12:16:00,77.7,61.0,29.97,ESE,117,7.0,8.0,57,0.00,,,0.00,800,weatherlink.com 1.10,2017-11-18 17:16:00,
2017-11-18 12:31:00,77.7,62.0,29.97,SE,137,2.0,7.0,58,0.00,,,0.00,214,weatherlink.com 1.10,2017-11-18 17:31:00,
2017-11-18 12:46:00,77.7,61.0,29.96,ENE,64,5.0,8.0,56,0.00,,,0.00,737,weatherlink.com 1.10,2017-11-18 17:46:00,
2017-11-18 13:01:00,78.1,61.0,29.95,ESE,105,3.0,10.0,56,0.00,,,0.00,728,weatherlink.com 1.10,2017-11-18 18:01:00,
2017-11-18 13:16:00,77.6,61.0,29.95,NE,52,4.0,8.0,57,0.00,,,0.00,728,weatherlink.com 1.10,2017-11-18 18:16:00,
2017-11-18 13:31:00,77.9,61.0,29.94,ESE,112,1.0,8.0,57,0.00,,,0.00,670,weatherlink.com 1.10,2017-11-18 18:31:00,
2017-11-18 13:46:00,77.7,62.0,29.94,ENE,65,2.0,8.0,58,0.00,,,0.00,155,weatherlink.com 1.10,2017-11-18 18:46:00,
2017-11-18 14:01:00,77.4,61.0,29.93,East,99,3.0,7.0,57,0.00,,,0.00,178,weatherlink.com 1.10,2017-11-18 19:01:00,
2017-11-18 14:16:00,77.2,61.0,29.92,ENE,64,2.0,6.0,58,0.00,,,0.00,281,weatherlink.com 1.10,2017-11-18 19:16:00,
2017-11-18 14:31:00,77.7,62.0,29.92,East,84,3.0,4.0,58,0.00,,,0.00,633,weatherlink.com 1.10,2017-11-18 19:31:00,
2017-11-18 14:46:00,77.4,62.0,29.92,ENE,65,5.0,9.0,60,0.00,,,0.00,232,weatherlink.com 1.10,2017-11-18 19:46:00,
2017-11-18 15:01:00,77.0,62.0,29.92,ENE,73,3.0,7.0,60,0.00,,,0.00,109,weatherlink.com 1.10,2017-11-18 20:01:00,
2017-11-18 15:16:00,77.0,62.0,29.92,East,93,2.0,7.0,60,0.00,,,0.00,109,weatherlink.com 1.10,2017-11-18 20:16:00,
2017-11-18 15:31:00,77.2,62.0,29.92,ENE,66,3.0,7.0,59,0.00,,,0.00,125,weatherlink.com 1.10,2017-11-18 20:31:00,
2017-11-18 15:46:00,76.8,62.0,29.92,NNE,29,0.0,4.0,60,0.00,,,0.00,390,weatherlink.com 1.10,2017-11-18 20:46:00,
2017-11-18 16:01:00,77.0,62.0,29.92,NNE,26,2.0,8.0,61,0.00,,,0.00,109,weatherlink.com 1.10,2017-11-18 21:01:00,
2017-11-18 16:16:00,76.8,62.0,29.92,East,88,0.0,3.0,61,0.00,,,0.00,98,weatherlink.com 1.10,2017-11-18 21:16:00,
2017-11-18 16:31:00,76.3,62.0,29.92,ENE,59,2.0,2.0,61,0.00,,,0.00,63,weatherlink.com 1.10,2017-11-18 21:31:00,
2017-11-18 16:46:00,76.1,62.0,29.92,ENE,77,2.0,5.0,61,0.00,,,0.00,28,weatherlink.com 1.10,2017-11-18 21:46:00,
2017-11-18 17:01:00,76.0,61.0,29.92,ENE,77,0.0,3.0,61,0.00,,,0.00,19,weatherlink.com 1.10,2017-11-18 22:01:00,
2017-11-18 17:16:00,75.6,62.0,29.92,East,80,0.0,1.0,63,0.00,,,0.00,11,weatherlink.com 1.10,2017-11-18 22:16:00,
2017-11-18 17:31:00,74.9,62.0,29.93,East,80,0.0,0.0,64,0.00,,,0.00,0,weatherlink.com 1.10,2017-11-18 22:31:00,
2017-11-18 17:46:00,74.4,62.0,29.92,East,80,0.0,0.0,66,0.00,,,0.00,0,weatherlink.com 1.10,2017-11-18 22:46:00,
2017-11-18 18:01:00,73.7,62.0,29.92,East,80,0.0,0.0,68,0.00,,,0.00,0,weatherlink.com 1.10,2017-11-18 23:01:00,
2017-11-18 18:16:00,73.2,63.0,29.93,East,80,0.0,0.0,70,0.00,,,0.00,0,weatherlink.com 1.10,2017-11-18 23:16:00,
2017-11-18 18:31:00,72.5,63.0,29.93,East,80,0.0,0.0,72,0.00,,,0.00,0,weatherlink.com 1.10,2017-11-18 23:31:00,
2017-11-18 18:46:00,72.0,63.0,29.93,East,80,0.0,0.0,73,0.00,,,0.00,0,weatherlink.com 1.10,2017-11-18 23:46:00,
2017-11-18 19:01:00,71.5,63.0,29.94,East,80,0.0,0.0,75,0.00,,,0.00,0,weatherlink.com 1.10,2017-11-19 00:01:00,
2017-11-18 19:16:00,71.1,64.0,29.93,East,80,0.0,0.0,77,0.00,,,0.00,0,weatherlink.com 1.10,2017-11-19 00:16:00,
2017-11-18 19:31:00,71.3,64.0,29.94,East,80,0.0,0.0,77,0.00,,,0.00,0,weatherlink.com 1.10,2017-11-19 00:31:00,
2017-11-18 19:46:00,71.1,64.0,29.95,East,80,0.0,0.0,77,0.00,,,0.00,0,weatherlink.com 1.10,2017-11-19 00:46:00,
2017-11-18 20:01:00,71.3,64.0,29.95,East,80,0.0,1.0,77,0.00,,,0.00,0,weatherlink.com 1.10,2017-11-19 01:01:00,